This is the latest recevied weather packets stored in our database for station/object CT2IRJ-11. If no packets are shown the sender has not sent any weather packets the latest 10 day(s).
| Time | Temp. | Humidity | Pressure | Rain* | Wind** | Luminosity | Snow |
|---|---|---|---|---|---|---|---|
| 1777826909 | 17.78° C | 82% | 1013.2 hPa | 0 mm | - | 102 W/m² | - |
| 1777826609 | 17.22° C | 82% | 1013.5 hPa | 0 mm | - | 145 W/m² | - |
| 1777826309 | 17.22° C | 85% | 1013.2 hPa | 0 mm | - | 218 W/m² | - |
| 1777826009 | 16.67° C | 89% | 1013.2 hPa | 0 mm | - | 121 W/m² | - |
| 1777825710 | 16.67° C | 89% | 1013.2 hPa | 0 mm | - | 83 W/m² | - |
| 1777825410 | 16.11° C | 87% | 1013.2 hPa | 0 mm | - | 115 W/m² | - |
| 1777825110 | 16.67° C | 90% | 1013.2 hPa | 0.25 mm | - | 115 W/m² | - |
| 1777824810 | 16.67° C | 90% | 1013.2 hPa | 0.51 mm | - | 102 W/m² | - |
| 1777824509 | 16.11° C | 90% | 1013.2 hPa | 1.27 mm | - | 34 W/m² | - |
| 1777824209 | 16.11° C | 90% | 1013.2 hPa | 2.29 mm | - | 29 W/m² | - |
| 1777823909 | 16.11° C | 90% | 1013.2 hPa | 3.05 mm | - | 39 W/m² | - |
| 1777823609 | 16.11° C | 91% | 1013.2 hPa | 4.57 mm | - | 56 W/m² | - |
| 1777823309 | 16.11° C | 91% | 1013.5 hPa | 6.1 mm | - | 79 W/m² | - |
| 1777823010 | 16.11° C | 91% | 1013.2 hPa | 8.13 mm | - | 138 W/m² | - |
| 1777822424 | 16.11° C | 91% | 1013.2 hPa | 10.41 mm | - | 67 W/m² | - |
| 1777822110 | 16.11° C | 91% | 1013.5 hPa | 11.18 mm | - | 151 W/m² | - |
| 1777821809 | 16.11° C | 91% | 1013.5 hPa | 11.43 mm | - | 172 W/m² | - |
| 1777821510 | 15.56° C | 91% | 1013.5 hPa | 11.43 mm | - | 90 W/m² | - |
| 1777821210 | 15.56° C | 90% | 1013.5 hPa | 11.18 mm | - | 134 W/m² | - |
| 1777820909 | 15.56° C | 90% | 1013.5 hPa | 10.16 mm | - | 113 W/m² | - |
| 1777820609 | 15.56° C | 90% | 1013.9 hPa | 9.14 mm | - | 61 W/m² | - |
| 1777820309 | 15.56° C | 90% | 1013.9 hPa | 8.13 mm | - | 46 W/m² | - |
| 1777820009 | 15.56° C | 90% | 1013.9 hPa | 6.6 mm | - | 49 W/m² | - |
| 1777819709 | 15.56° C | 90% | 1013.9 hPa | 5.08 mm | - | 48 W/m² | - |
| 1777819409 | 16.11° C | 89% | 1013.9 hPa | 3.05 mm | - | 48 W/m² | - |
* Rain latest hour (hover to see other rain measurements)
** Current wind speed in m/s (hover to see current wind gust speed)